ALESUND/VIGRA current weather conditions

sailwx.info

Wind from 210 at 26 knots gusting 40

Air temperature 5.0° C
Visibility: greater than 5.4 NM
Dewpoint 2.0° C
Present weather: Rain showers.

Last reported at 2017-Nov-24 16:50 UTC.
Time now 2017-Nov-24 18:32 UTC

Location: N 62°34' E 006°07'.
View on Google Maps.

See reports from other nearby stations

  
Tides and Currents Weather Stations Pressure Air Temp Water Temp Dewpoint Dewpoint Depression Visibility Wind Speed Wind Dir Waves Ship Positions
date/time (UTC)wind fromknots sea level pressurealtimeterstation pressurevisibilityair tempwater tempwave heightnotes
2017-Nov-24 17:50 220 28 gusting 41 5.4 5.0 Light rain showers.
2017-Nov-24 17:20 220 26 gusting 41 4.9 5.0 Showers in the vicinity.
2017-Nov-24 16:50 210 26 gusting 40 5.4 5.0 Rain showers.
2017-Nov-24 16:20 210 24 gusting 35 4.3 4.0 Rain showers.
2017-Nov-24 15:50 210 25 gusting 38 5.4 5.0 Showers in the vicinity.
2017-Nov-24 15:20 200 20 gusting 31 5.4 5.0 Light rain showers.
2017-Nov-24 14:50 240 29 gusting 41 5.4 4.0 Thunderstorm. Light rain showers.
2017-Nov-24 14:20 210 27 5.4 6.0 Light rain showers.
2017-Nov-24 13:50 210 26 gusting 38 5.4 6.0 Light rain.
2017-Nov-24 13:20 220 28 gusting 39 5.4 6.0 Light rain.
2017-Nov-24 12:50 210 26 gusting 38 5.4 6.0
2017-Nov-24 12:20 210 27 gusting 40 5.4 5.0 Rain showers. Small hail/snow pellets.
2017-Nov-24 11:50 200 26 gusting 40 4.3 6.0
2017-Nov-24 11:20 190 20 5.4 4.0 Thunderstorm. Light rain.
2017-Nov-24 10:50 180 22 gusting 33 5.4 4.0 Thunderstorm. Light rain.
2017-Nov-24 10:20 200 24 gusting 35 3.8 4.0 Light rain.
2017-Nov-24 09:50 190 20 gusting 31 5.4 4.0 Light drizzle.
2017-Nov-24 09:20 180 20 gusting 31 5.4 4.0 Light thunderstorm with rain.
2017-Nov-24 08:50 180 22 gusting 33 5.4 4.0 Light thunderstorm with rain.
2017-Nov-24 08:20 180 20 5.4 4.0 Light thunderstorm with rain.
2017-Nov-24 07:50 180 20 gusting 33 5.4 5.0 Light rain.
2017-Nov-24 07:20 180 18 5.4 5.0 Light rain.
2017-Nov-24 06:50 180 20 gusting 31 5.4 5.0 Showers in the vicinity.
2017-Nov-24 06:20 180 20 gusting 31 5.4 5.0 Showers in the vicinity.
2017-Nov-24 05:50 180 20 gusting 31 5.4 5.0 Showers in the vicinity.
2017-Nov-24 05:20 180 20 5.4 5.0 Light rain.
2017-Nov-24 04:50 180 22 gusting 39 5.4 4.0 Light rain.
2017-Nov-24 04:20 180 19 5.4 4.0 Drizzle.
2017-Nov-24 03:50 180 20 gusting 33 5.4 4.0 Light drizzle.
2017-Nov-24 03:20 180 20 gusting 34 5.4 4.0
2017-Nov-24 02:50 180 19 gusting 32 5.4 4.0
2017-Nov-24 02:20 180 20 2.7 3.0 Light rain.
2017-Nov-24 01:50 190 19 gusting 29 2.2 3.0 Rain showers.
2017-Nov-24 01:20 200 24 gusting 40 3.2 4.0 Rain showers.
2017-Nov-24 00:50 200 21 gusting 35 5.4 5.0 Light rain showers.
2017-Nov-24 00:20 190 14 5.4 5.0 Light rain showers.
2017-Nov-23 23:50 190 20 gusting 32 5.4 5.0 Light rain showers.
2017-Nov-23 23:20 200 18 5.4 5.0 Showers in the vicinity.
2017-Nov-23 22:50 210 20 gusting 33 5.4 5.0 Rain showers. Small hail/snow pellets.
2017-Nov-23 22:20 180 15 5.4 5.0 Showers in the vicinity.
2017-Nov-23 21:50 200 18 5.4 5.0 Light rain showers.
2017-Nov-23 21:20 200 17 5.4 5.0 Light rain showers.
2017-Nov-23 20:50 200 13 5.4 5.0 Light rain showers.
2017-Nov-23 20:20 200 15 5.4 5.0 Light rain showers.
2017-Nov-23 19:50 210 18 5.4 5.0 Light rain.
2017-Nov-23 19:20 200 12 5.4 4.0
2017-Nov-23 18:50 210 13 5.4 4.0 Light rain.
2017-Nov-23 18:20 230 13 4.9 3.0 Drizzle rain.
2017-Nov-23 17:50 260 13 5.4 3.0 Light rain.
2017-Nov-23 17:20 250 8 5.4 3.0 Light rain.
2017-Nov-23 16:50 270 9 5.4 3.0 Light rain.
2017-Nov-23 16:20 270 9 3.8 4.0 Drizzle rain.
2017-Nov-23 15:50 260 6 3.8 4.0 Drizzle rain.
2017-Nov-23 15:20 260 6 5.4 4.0 Light rain drizzle.
2017-Nov-23 14:50 260 6 5.4 4.0 Light rain.
2017-Nov-23 14:20 260 5 5.4 5.0 Light rain.
2017-Nov-23 13:50 260 4 5.4 5.0 Light rain.
2017-Nov-23 13:20 290 5 5.4 5.0 Light rain.
2017-Nov-23 12:50 240 6 4.9 6.0 Light rain.
2017-Nov-23 12:20 190 4 5.4 6.0 Light drizzle.
2017-Nov-23 11:50 160 5 5.4 5.0 Light drizzle.
2017-Nov-23 11:20 160 5 5.4 5.0 Light drizzle.
2017-Nov-23 10:50 140 5 5.4 5.0 Light rain.
2017-Nov-23 10:20 150 5 5.4 5.0 Light rain.
2017-Nov-23 09:50 150 6 5.4 5.0 Light drizzle.
2017-Nov-23 09:20 150 7 5.4 5.0 Light drizzle.
2017-Nov-23 08:50 140 7 5.4 5.0 Light drizzle.
2017-Nov-23 08:20 140 11 5.4 6.0 Light drizzle.
2017-Nov-23 07:50 140 12 5.4 6.0
2017-Nov-23 07:20 140 12 5.4 6.0
2017-Nov-23 06:50 130 12 5.4 6.0
2017-Nov-23 06:20 140 11 5.4 6.0 Light drizzle.
2017-Nov-23 05:50 140 13 5.4 6.0 Light rain.
2017-Nov-23 05:20 130 13 5.4 7.0
2017-Nov-23 04:50 130 13 5.4 6.0 Light drizzle.
2017-Nov-23 04:20 130 14 5.4 7.0
2017-Nov-23 03:50 130 14 5.4 7.0
2017-Nov-23 03:20 120 12 5.4 7.0
2017-Nov-23 02:50 120 13 5.4 7.0
2017-Nov-23 02:20 120 14 5.4 7.0
2017-Nov-23 01:50 120 17 5.4 7.0
2017-Nov-23 01:20 120 18 5.4 7.0
2017-Nov-23 00:50 120 17 5.4 6.0
2017-Nov-23 00:20 120 19 5.4 6.0
2017-Nov-22 23:50 120 20 5.4 6.0
2017-Nov-22 23:20 120 20 5.4 6.0
2017-Nov-22 22:50 110 17 5.4 6.0
2017-Nov-22 22:20 110 21 5.4 5.0
2017-Nov-22 21:50 110 20 5.4 5.0 Light rain showers.
2017-Nov-22 21:20 120 24 5.4 5.0 Light rain showers.
2017-Nov-22 20:50 120 20 5.4 4.0 Light rain showers.
2017-Nov-22 20:20 120 20 5.4 4.0 Light rain showers.
2017-Nov-22 19:50 120 21 5.4 4.0 Light rain showers.
2017-Nov-22 19:20 120 24 5.4 4.0 Light rain showers.
2017-Nov-22 18:50 120 22 5.4 4.0
2017-Nov-22 18:20 130 20 5.4 3.0